This demonstration page uses our WeatherBlox Daily Observations layout. Learn more.

Left ArrowRight Arrow

Hourly Observations for March 29, 2016

Temp ( °F °C ) Dew Point ( °F °C ) Humidity (%) Winds ( mph kmh ) Pressure ( in mb ) Visibility ( mi km ) Precip ( " mm )
12:15 am 00:15 Clear 46 8 27 -3 46 46 SE 15 24 29.94 1014 10 16 0.00 0.00
12:35 am 00:35 Mostly Clear 46 8 27 -3 46 46 SE 15 24 29.94 1014 10 16 0.00 0.00
12:55 am 00:55 Mostly Clear 46 8 25 -4 43 43 SE 15 24 29.91 1013 10 16 0.00 0.00
1:15 am 01:15 Mostly Clear 46 8 25 -4 43 43 SE 15 24 29.91 1013 10 16 0.00 0.00
1:35 am 01:35 Mostly Cloudy 46 8 30 -1 53 53 SE 17 28 29.91 1013 10 16 0.00 0.00
1:55 am 01:55 Cloudy 46 8 28 -2 50 50 SE 15 24 29.91 1013 10 16 0.00 0.00
2:15 am 02:15 Partly Cloudy 46 8 27 -3 46 46 SE 14 22 29.91 1013 10 16 0.00 0.00
2:35 am 02:35 Mostly Cloudy 46 8 28 -2 50 50 SE 13 20 29.91 1013 10 16 0.00 0.00
2:55 am 02:55 Partly Cloudy 46 8 28 -2 50 50 SE 12 19 29.91 1013 10 16 0.00 0.00
3:15 am 03:15 Mostly Clear 46 8 28 -2 50 50 SE 16 26 29.91 1013 10 16 0.00 0.00
3:35 am 03:35 Partly Cloudy 48 9 27 -3 43 43 SE 16 26 29.91 1013 10 16 0.00 0.00
3:55 am 03:55 Partly Cloudy 48 9 27 -3 43 43 SE 17 28 29.91 1013 10 16 0.00 0.00
4:15 am 04:15 Mostly Cloudy 48 9 27 -3 43 43 ESE 14 22 29.91 1013 10 16 0.00 0.00
4:35 am 04:35 Mostly Cloudy 46 8 27 -3 46 46 E 10 17 29.88 1012 10 16 0.00 0.00
4:55 am 04:55 Mostly Cloudy 46 8 27 -3 46 46 SE 17 28 29.88 1012 10 16 0.00 0.00
5:15 am 05:15 Mostly Cloudy with Thunderstorms 45 7 34 1 66 66 SE 18 30 29.91 1013 7 11 0.00 0.00
5:35 am 05:35 Cloudy with Thunderstorms 45 7 34 1 66 66 ESE 20 31 29.91 1013 10 16 0.02 0.51
5:55 am 05:55 Cloudy with Thunderstorms 45 7 34 1 66 66 ESE 16 26 29.91 1013 8 13 0.06 1.52
6:15 am 06:15 Cloudy 43 6 34 1 71 71 ESE 21 33 29.91 1013 10 16 0.00 0.00
6:35 am 06:35 Cloudy 43 6 36 2 76 76 ESE 24 39 29.88 1012 10 16 0.00 0.00
6:55 am 06:55 Cloudy with Nearby Thunderstorms 43 6 36 2 76 76 ESE 18 30 29.91 1013 10 16 0.00 0.00
7:15 am 07:15 Cloudy with Thunderstorms 43 6 37 3 81 81 SSE 18 30 29.91 1013 8 13 0.00 0.00
7:35 am 07:35 Cloudy with Nearby Thunderstorms 43 6 37 3 81 81 SE 21 33 29.91 1013 10 16 0.09 2.29
7:55 am 07:55 Cloudy with Thunderstorms 43 6 37 3 81 81 SE 15 24 29.91 1013 10 16 0.09 2.29
8:15 am 08:15 Cloudy with Nearby Thunderstorms 43 6 37 3 81 81 SE 12 19 29.91 1013 10 16 0.00 0.00
8:35 am 08:35 Cloudy 45 7 36 2 71 71 ESE 15 24 29.91 1013 10 16 0.00 0.00
8:55 am 08:55 Cloudy 45 7 36 2 71 71 ESE 13 20 29.91 1013 10 16 0.00 0.00
9:15 am 09:15 Cloudy 45 7 36 2 71 71 ESE 14 22 29.91 1013 10 16 0.00 0.00
9:35 am 09:35 Cloudy 45 7 36 2 71 71 ESE 13 20 29.91 1013 10 16 0.00 0.00
9:55 am 09:55 Cloudy 46 8 37 3 71 71 ESE 17 28 29.88 1012 10 16 0.00 0.00
10:15 am 10:15 Cloudy 46 8 37 3 71 71 SE 15 24 29.85 1011 10 16 0.00 0.00
10:35 am 10:35 Cloudy 48 9 39 4 71 71 SSE 17 28 29.85 1011 10 16 0.00 0.00
10:55 am 10:55 Cloudy 50 10 39 4 67 67 SSE 18 30 29.85 1011 10 16 0.00 0.00
11:15 am 11:15 Cloudy 52 11 39 4 62 62 SSE 21 33 29.83 1010 10 16 0.00 0.00
11:35 am 11:35 Cloudy 52 11 39 4 62 62 SSE 23 37 29.83 1010 10 16 0.00 0.00
11:55 am 11:55 Cloudy 54 12 41 5 63 63 SSE 22 35 29.83 1010 10 16 0.00 0.00
12:15 pm 12:15 Cloudy 54 12 39 4 58 58 SSE 22 35 29.83 1010 10 16 0.00 0.00
12:35 pm 12:35 Cloudy 54 12 41 5 63 63 SSE 20 31 29.80 1009 10 16 0.00 0.00
12:55 pm 12:55 Cloudy 54 12 41 5 63 63 SSE 24 39 29.80 1009 10 16 0.00 0.00
1:15 pm 13:15 Cloudy 54 12 39 4 58 58 SSE 24 39 29.80 1009 10 16 0.00 0.00
1:35 pm 13:35 Cloudy 55 13 41 5 59 59 SSE 20 31 29.77 1008 10 16 0.00 0.00
1:55 pm 13:55 Cloudy 55 13 41 5 59 59 SSE 24 39 29.77 1008 10 16 0.00 0.00
2:15 pm 14:15 Cloudy 55 13 43 6 63 63 SSE 17 28 29.77 1008 10 16 0.00 0.00
2:35 pm 14:35 Cloudy 57 14 43 6 59 59 SSE 28 44 29.71 1006 10 16 0.00 0.00
2:55 pm 14:55 Cloudy 59 15 43 6 55 55 SSE 23 37 29.71 1006 10 16 0.00 0.00
3:15 pm 15:15 Cloudy 59 15 43 6 55 55 SSE 22 35 29.71 1006 10 16 0.00 0.00
3:35 pm 15:35 Cloudy 59 15 43 6 55 55 SSE 22 35 29.68 1005 10 16 0.00 0.00
3:55 pm 15:55 Cloudy 61 16 45 7 55 55 SSE 25 41 29.68 1005 10 16 0.00 0.00
4:15 pm 16:15 Mostly Cloudy 61 16 45 7 55 55 SSE 28 44 29.68 1005 10 16 0.00 0.00
4:35 pm 16:35 Mostly Cloudy 61 16 45 7 55 55 SSE 32 52 29.68 1005 10 16 0.00 0.00
4:55 pm 16:55 Mostly Cloudy 61 16 45 7 55 55 SSE 25 41 29.65 1004 10 16 0.00 0.00
5:15 pm 17:15 Mostly Cloudy 61 16 45 7 55 55 SSE 26 43 29.65 1004 10 16 0.00 0.00
5:35 pm 17:35 Mostly Cloudy 61 16 45 7 55 55 SSE 26 43 29.65 1004 10 16 0.00 0.00
5:55 pm 17:55 Cloudy 59 15 45 7 59 59 SSE 25 41 29.65 1004 10 16 0.00 0.00
6:15 pm 18:15 Cloudy 59 15 45 7 59 59 SSE 24 39 29.65 1004 10 16 0.00 0.00
6:35 pm 18:35 Cloudy 57 14 45 7 63 63 SSE 25 41 29.65 1004 10 16 0.00 0.00
6:55 pm 18:55 Cloudy 57 14 45 7 63 63 SSE 22 35 29.65 1004 10 16 0.00 0.00
7:15 pm 19:15 Cloudy 57 14 45 7 63 63 SSE 20 31 29.65 1004 10 16 0.00 0.00
7:35 pm 19:35 Cloudy 57 14 45 7 63 63 SSE 21 33 29.65 1004 10 16 0.00 0.00
7:55 pm 19:55 Cloudy 57 14 45 7 63 63 SSE 20 31 29.65 1004 10 16 0.00 0.00
8:15 pm 20:15 Cloudy 55 13 43 6 63 63 SSE 18 30 29.62 1003 10 16 0.00 0.00
8:35 pm 20:35 Cloudy 55 13 45 7 67 67 SE 20 31 29.62 1003 10 16 0.00 0.00
8:55 pm 20:55 Mostly Cloudy 55 13 43 6 63 63 SE 23 37 29.62 1003 10 16 0.00 0.00
9:15 pm 21:15 Mostly Clear 55 13 43 6 63 63 SSE 20 31 29.62 1003 10 16 0.00 0.00
9:35 pm 21:35 Mostly Cloudy 55 13 43 6 63 63 SSE 22 35 29.62 1003 10 16 0.00 0.00
9:55 pm 21:55 Cloudy 55 13 45 7 67 67 SSE 21 33 29.62 1003 10 16 0.00 0.00
10:15 pm 22:15 Cloudy 57 14 43 6 59 59 SSE 21 33 29.62 1003 10 16 0.00 0.00
10:35 pm 22:35 Cloudy 57 14 43 6 59 59 SSE 21 33 29.62 1003 10 16 0.00 0.00
10:55 pm 22:55 Mostly Cloudy 55 13 43 6 63 63 SSE 24 39 29.59 1002 10 16 0.00 0.00
11:15 pm 23:15 Cloudy 57 14 43 6 59 59 SSE 23 37 29.59 1002 10 16 0.00 0.00
11:35 pm 23:35 Cloudy 57 14 43 6 59 59 SSE 21 33 29.59 1002 10 16 0.00 0.00
11:55 pm 23:55 Cloudy 57 14 43 6 59 59 SSE 21 33 29.59 1002 10 16 0.00 0.00

Powered by AerisWeather